RH
73 74 75 76 77 79 80 80 81 82 82 83 82 81 80 83 81 67 70 65 66 60 64 74 67 70 70 74 72 80 91 92 78 79 70 52 62 50 43 53 46 68 88 77 87
72 76 76 76 78 79 80 80 81 82 83 83 83 81 81 85 84 71 55 56 58 60 74 82 80 79 82 78 81 86 94 66 72 68 70 63 64 59 56 51 61 50 61 90 90
73 74 72 78 78 78 80 80 81 82 83 83 82 81 83 91 73 61 55 57 55 61 75 79 82 82 86 79 81 85 92 72 66 64 65 72 69 54 59 58 57 58 64 94 93
72 72 76 77 78 79 80 81 81 82 82 82 80 81 85 82 54 61 56 52 55 64 70 74 74 85 90 85 74 90 77 75 69 64 75 76 65 61 57 54 50 54 90 89 94
75 76 78 79 81 81 82 82 82 81 81 80 80 82 77 68 59 58 53 54 65 69 73 75 80 86 92 88 81 87 82 71 69 72 72 68 72 65 58 47 45 54 92 94 92
77 78 80 81 82 83 83 82 82 81 81 80 81 85 78 58 56 58 59 65 66 71 75 74 78 78 89 89 91 81 80 78 74 71 72 74 72 68 57 46 41 44 66 90 94
78 80 81 82 83 84 84 83 83 83 83 83 81 85 77 49 57 65 60 66 68 70 76 74 73 82 88 88 76 80 92 83 79 74 75 67 71 77 55 47 44 45 50 78 94
80 81 82 83 84 85 86 86 86 86 86 84 82 88 58 57 64 62 63 64 63 68 71 69 72 85 90 84 78 89 86 96 67 69 68 65 79 55 50 50 49 49 46 72 89
80 81 83 84 86 85 87 86 84 83 81 80 86 81 60 62 59 54 60 67 67 68 70 56 76 88 87 93 89 89 93 97 82 64 69 73 81 61 52 51 50 51 50 60 84
82 84 85 87 89 90 88 81 75 78 78 76 63 68 51 54 63 62 64 65 72 75 79 84 91 94 91 93 95 92 82 89 95 68 66 72 79 63 58 59 56 56 57 60 66
82 84 87 87 88 90 84 53 48 46 71 49 50 50 47 58 57 64 63 68 74 84 93 89 94 94 78 81 81 89 95 96 80 66 72 79 72 62 56 62 63 60 63 64 71
78 83 84 86 87 85 68 61 64 70 69 58 55 56 50 48 46 63 62 70 85 85 85 88 97 72 70 73 79 81 90 89 72 63 68 65 60 52 52 58 59 58 64 64 70
77 78 82 86 88 68 68 68 69 72 81 55 53 45 47 46 50 51 64 70 75 81 78 83 62 66 75 74 76 82 89 88 78 74 66 71 74 66 54 54 51 55 57 58 58
74 75 78 85 59 79 70 68 71 66 76 46 46 40 51 52 47 54 63 56 61 69 67 72 60 63 77 80 77 92 74 76 81 87 95 66 92 72 61 58 52 52 59 60 68
74 76 78 82 96 72 62 72 70 57 55 36 44 40 54 49 45 56 63 60 64 52 56 53 77 77 85 79 75 74 75 81 84 94 88 86 94 72 63 51 45 44 53 59 62
77 77 78 87 87 80 74 79 63 69 48 44 42 47 53 53 52 64 64 64 66 71 67 62 55 65 67 57 69 65 76 73 87 88 95 81 89 76 67 49 43 42 46 52 59
79 77 84 85 63 78 76 70 69 69 34 34 39 49 52 49 54 63 60 74 60 58 58 51 58 56 56 66 69 76 80 91 84 95 92 81 90 72 56 53 47 48 49 49 77
80 80 86 88 80 76 77 47 48 29 31 40 44 47 45 47 48 55 59 56 61 55 66 75 59 60 56 57 66 80 77 91 91 92 86 78 88 71 52 52 59 60 72 73 96
79 97 91 86 78 83 70 84 47 36 38 40 36 49 47 50 47 47 53 50 44 53 57 67 51 51 54 53 49 68 86 73 80 87 97 87 70 54 60 56 55 60 90 94 99
94 88 88 81 81 81 77 66 37 54 43 41 39 34 54 42 50 49 43 39 43 48 50 47 57 45 47 53 55 58 56 75 89 88 88 84 76 77 64 56 65 63 78 93 96
96 90 79 85 79 82 90 77 64 46 42 47 48 46 42 43 45 44 36 34 45 54 52 59 60 50 52 57 54 67 65 67 67 79 85 81 78 64 64 59 66 68 79 89 87
96 76 68 76 75 94 90 79 67 51 48 49 56 55 57 53 47 46 45 36 48 51 54 57 64 77 49 47 48 59 55 59 77 67 75 71 64 47 59 62 64 62 90 86 92
98 97 81 72 89 96 79 73 68 66 66 62 60 57 57 56 56 50 46 49 50 54 55 57 65 76 47 53 58 56 54 57 59 68 67 76 57 40 55 58 60 65 93 93 94
88 96 89 88 70 84 93 81 75 63 73 70 73 73 83 88 59 60 58 55 63 59 61 52 62 52 55 41 50 60 54 52 58 82 50 49 38 29 31 46 54 79 96 94 92
97 93 92 96 82 96 92 87 85 79 63 60 79 67 72 90 84 82 80 77 67 64 75 65 77 76 65 54 55 52 52 48 62 47 57 36 37 30 28 35 41 70 97 94 94
97 94 87 95 90 78 70 75 84 73 67 59 76 70 69 66 61 72 74 80 80 75 80 79 90 79 76 60 65 65 56 51 51 52 53 46 46 31 30 38 69 88 97 97 98
96 91 96 80 91 86 78 79 76 70 63 58 70 82 83 68 68 69 67 64 64 68 68 72 90 86 83 60 60 61 57 43 47 58 50 56 35 40 42 44 54 86 95 94 95
Wind_Speed
13 13 12 11 10 10 11 11 11 11 11 12 13 14 15 15 14 2 2 4 6 12 10 7 5 7 2 2 2 1 2 2 5 4 5 4 7 4 7 5 8 5 3 4 19
15 15 14 13 12 11 12 11 11 11 12 13 13 13 13 13 3 3 3 6 6 8 5 7 6 8 3 2 2 3 3 6 5 5 6 8 5 10 7 11 5 8 10 10 21
16 16 15 14 13 12 12 12 12 11 12 12 12 14 13 7 2 3 3 4 5 5 2 2 4 2 2 1 2 3 5 4 7 9 7 6 6 4 5 6 1 9 12 11 20
17 17 16 15 15 14 14 14 13 12 11 11 11 12 14 1 2 2 3 4 5 3 3 4 4 3 2 3 3 4 7 6 7 5 3 7 5 5 9 10 8 10 2 10 18
18 18 17 17 16 15 15 15 14 13 12 10 10 9 3 2 7 4 1 2 2 2 2 2 3 2 3 4 6 6 5 7 9 8 7 9 11 8 12 14 9 9 2 4 10
19 20 19 18 18 17 15 14 14 14 12 10 8 6 1 3 3 5 3 1 1 1 1 1 1 2 3 4 1 4 9 11 9 11 6 7 11 7 8 8 8 8 6 6 8
20 20 20 19 18 18 17 15 14 13 12 10 7 2 2 10 2 4 3 2 2 1 1 2 2 2 0 5 3 6 7 9 7 4 6 3 7 7 16 7 8 8 6 6 10
21 22 21 21 20 19 17 15 14 12 10 9 5 2 6 1 3 2 3 4 4 3 2 4 3 2 3 3 6 4 2 6 5 3 5 6 5 5 4 4 8 7 4 5 7
23 23 23 23 20 18 17 17 12 7 3 3 3 2 7 2 2 5 6 3 2 2 3 2 1 2 4 2 4 5 4 7 10 4 4 3 5 5 5 7 12 6 8 5 9
23 24 24 23 23 20 17 8 1 3 3 2 2 2 2 4 3 3 3 2 1 2 2 1 3 2 3 2 3 4 5 4 7 7 4 11 14 14 11 11 13 8 7 7 9
24 25 25 23 24 18 7 3 6 3 2 7 3 4 3 1 2 3 3 4 2 2 1 1 2 6 9 7 5 3 4 8 13 15 6 8 15 15 9 8 10 9 8 7 8
25 25 26 25 25 13 2 5 3 3 9 5 6 6 5 2 3 3 5 3 2 3 1 3 7 8 4 5 6 5 6 9 11 6 4 10 22 18 14 8 9 10 9 9 5
26 26 26 25 25 5 3 2 2 4 2 7 5 4 3 5 4 4 8 3 4 3 5 7 6 1 4 4 5 5 5 6 7 8 5 7 10 7 6 4 7 7 9 7 10
26 25 25 26 3 3 1 1 2 2 6 5 3 3 3 3 4 2 7 4 2 5 3 7 4 5 4 6 5 5 4 5 6 6 3 6 9 7 7 10 7 9 8 10 9
26 26 24 16 4 0 1 2 3 3 6 3 3 2 2 4 2 3 3 2 5 4 4 9 3 5 5 7 6 8 2 4 3 3 4 2 2 10 4 8 11 7 10 10 9
28 26 21 1 1 3 2 3 3 8 8 4 3 2 1 3 3 2 2 1 2 3 4 8 4 4 7 3 6 3 3 3 2 2 2 4 4 9 4 6 6 6 5 9 8
29 27 12 2 2 1 2 3 7 5 2 4 5 3 3 3 3 5 4 4 4 3 3 4 4 3 3 2 1 2 5 5 7 5 7 3 1 13 10 8 8 12 11 9 7
31 20 1 2 2 1 2 5 3 7 7 3 1 0 4 3 4 2 2 4 5 3 1 1 8 5 3 5 2 4 5 5 5 3 6 1 7 9 5 6 8 7 10 8 9
21 4 2 4 0 2 5 3 9 5 4 5 2 0 3 1 2 1 5 5 6 9 8 4 7 1 4 3 5 2 3 2 1 1 2 4 8 10 1 4 7 9 9 6 6
2 4 3 7 2 4 5 6 4 2 6 4 3 2 2 3 3 1 3 3 3 8 2 3 5 3 2 2 1 5 4 1 3 3 6 6 6 8 8 7 8 9 8 7 2
4 4 3 5 2 5 3 5 5 5 6 4 2 5 6 5 7 4 6 6 1 1 1 4 4 5 1 7 7 3 2 3 2 4 4 5 8 8 7 5 7 9 6 6 7
3 4 4 4 4 1 1 5 6 6 6 5 2 3 4 3 4 4 6 5 1 6 5 4 4 5 11 2 5 4 6 6 5 4 4 2 13 4 6 6 5 8 3 4 1
3 3 4 3 3 3 6 5 3 8 8 7 6 5 7 4 6 4 4 5 7 2 4 3 2 4 10 3 1 4 5 5 1 3 9 3 13 2 5 6 7 8 5 3 3
4 6 6 6 4 4 5 4 6 7 3 7 7 7 7 7 5 7 7 5 11 5 6 1 4 7 8 7 1 4 4 4 5 3 6 15 28 23 14 9 7 7 7 6 6
6 5 3 5 5 5 4 5 7 9 9 11 2 15 10 6 8 6 7 10 11 10 2 1 6 5 9 14 8 13 18 15 12 20 10 29 17 26 16 9 10 9 6 6 7
4 5 5 3 5 6 5 5 5 7 6 10 6 14 11 8 11 19 17 7 9 7 8 5 6 4 9 9 10 17 16 18 18 19 14 22 26 26 22 7 6 9 10 9 7
2 3 2 5 5 4 3 5 6 12 6 4 14 15 7 12 10 17 18 19 22 21 19 13 5 3 17 5 9 19 16 19 10 8 9 10 19 6 5 7 8 9 13 13 10
Wind_Direction
354 347 341 333 328 322 318 318 319 322 321 320 323 332 332 328 321 318 355 274 323 332 335 313 340 349 43 323 313 124 44 275 246 204 251 315 357 301 279 273 298 285 265 227 152
353 346 339 331 323 316 312 310 311 313 315 318 321 326 331 330 323 292 198 323 327 345 359 4 345 345 345 275 287 145 204 229 230 258 286 306 306 314 318 322 304 341 335 150 145
354 347 338 331 322 314 308 304 304 305 306 311 319 323 327 324 350 261 217 316 329 2 287 285 289 278 303 288 236 216 226 243 256 264 278 288 302 275 293 295 325 308 304 182 157
356 352 344 335 325 319 313 306 300 299 300 305 315 323 323 187 338 230 253 302 331 15 2 339 351 344 289 286 300 291 262 243 261 254 273 283 271 263 263 247 300 296 292 204 176
357 351 343 335 327 321 315 309 302 298 299 304 310 326 358 351 247 191 263 312 318 31 43 2 39 353 292 307 318 242 263 275 272 275 262 253 248 235 260 268 281 287 106 251 201
360 354 346 337 327 321 317 310 303 301 301 301 301 318 135 269 145 154 169 289 314 38 1 69 131 243 273 272 231 304 288 281 269 259 250 252 264 200 240 252 270 277 274 204 238
356 353 348 340 330 321 317 308 299 295 296 294 291 248 148 239 179 177 161 213 209 189 276 254 184 88 279 287 277 266 297 299 265 259 253 206 295 238 241 253 261 253 289 252 208
352 350 347 344 336 325 317 306 297 291 287 272 242 204 238 184 129 176 170 285 238 237 243 263 218 251 203 293 318 329 340 337 292 306 265 149 299 322 279 304 290 258 258 259 235
350 347 344 343 338 329 320 310 296 292 195 153 140 207 273 126 206 218 162 227 252 233 241 283 299 281 338 14 345 27 326 311 308 303 275 200 277 249 264 288 282 232 275 254 259
348 345 342 340 336 329 321 314 88 91 104 191 292 20 268 240 194 175 173 178 297 330 355 146 26 348 339 77 255 264 304 257 259 287 316 292 259 265 254 243 253 262 237 258 270
346 342 338 338 336 330 351 32 17 344 48 206 202 254 267 137 111 190 170 140 137 71 254 237 347 247 257 224 218 247 255 263 276 281 284 268 277 279 264 215 242 251 251 248 254
346 340 337 334 336 331 41 69 133 197 309 256 246 276 257 185 292 226 130 157 163 237 164 358 242 245 262 251 241 233 277 284 282 275 310 293 290 284 272 225 216 224 235 233 206
345 342 337 333 325 23 53 109 125 122 261 294 217 211 207 139 238 241 155 173 205 241 200 192 240 104 187 263 261 261 224 267 263 325 279 315 292 321 287 245 257 240 227 230 201
341 340 336 333 23 315 337 114 94 118 49 262 250 270 113 133 275 167 190 172 236 243 248 232 262 200 235 260 188 285 217 241 286 2 301 48 291 287 294 293 263 255 230 235 194
338 336 331 324 284 311 175 81 115 53 19 251 201 147 119 194 306 208 171 95 226 227 83 258 229 223 239 227 170 234 248 260 254 236 346 358 60 272 326 301 284 255 241 221 212
334 331 330 6 279 258 97 82 55 42 257 297 171 218 203 194 254 107 174 127 199 266 219 248 292 213 213 233 209 327 325 354 47 102 359 233 141 283 264 224 288 291 269 240 196
331 325 318 188 251 127 96 55 32 144 286 238 231 176 221 237 254 181 190 200 199 0 326 309 230 265 180 282 96 94 44 340 350 6 232 156 90 245 276 265 251 281 284 256 207
329 323 349 225 313 159 71 53 171 239 239 351 93 181 232 165 248 228 263 276 225 146 302 84 327 193 175 198 209 186 158 155 248 263 277 228 230 254 229 278 274 283 278 274 180
335 336 48 344 26 38 75 100 215 226 314 331 324 275 290 291 215 321 227 237 215 179 174 166 266 241 206 171 143 147 195 203 231 36 23 253 288 299 360 339 312 313 320 293 170
336 346 356 319 23 66 78 247 269 331 331 355 275 154 305 331 339 269 258 220 256 188 211 205 294 203 273 166 209 166 158 48 9 293 282 280 279 240 300 312 316 312 321 317 263
42 51 275 334 48 57 166 252 317 335 7 340 306 301 248 276 206 231 260 280 209 112 146 151 143 281 168 199 185 127 229 184 170 172 228 298 256 217 229 263 290 287 296 297 244
15 49 313 355 53 34 22 317 307 329 353 313 310 281 253 294 291 262 241 252 145 157 186 214 165 262 238 223 156 167 202 164 143 237 245 238 271 262 235 259 285 285 271 324 121
29 279 324 36 58 14 324 315 317 12 4 348 319 2 2 314 312 256 305 359 9 267 198 188 242 328 328 33 71 204 200 199 118 106 213 225 268 243 266 271 271 265 249 180 157
353 1 341 28 31 28 349 303 337 7 89 346 354 44 356 347 337 301 326 345 326 320 322 246 215 200 224 248 317 262 224 201 188 202 283 234 274 277 264 252 249 236 235 176 161
15 33 24 351 355 337 315 324 344 8 3 2 59 35 4 304 313 330 0 330 324 306 324 350 238 215 254 259 268 265 272 263 223 250 219 273 260 271 275 232 232 217 194 185 169
54 11 345 309 310 352 345 17 23 4 343 321 15 340 329 295 291 303 310 330 266 314 357 342 280 292 275 277 248 258 255 262 249 251 248 258 274 270 281 265 176 192 174 195 180
351 341 19 309 340 345 350 17 332 347 288 314 336 325 320 289 311 292 275 266 258 265 272 282 265 269 273 255 310 277 218 241 235 203 208 222 250 290 244 228 211 192 189 187 187